Powrót do katalogu

STARLINK-32860

AktywnyŁącznośćVLEO
NORAD 62856·PAYLOAD·🇺🇸 United States

Wystrzelony Feb 1, 2025 z Vandenberg Space Force Base

Loading…

Następne Przeloty (najbliższe 24 godziny)

TLE

ŚwieżeSource: CelesTrak SupGP

Epoka: Sep 15, 2026, 03:26 UTC

1 62856C 25022C   26258.14354167  .00053574  00000+0  15826-2 0  2587
2 62856  53.1585 326.5073 0001258  96.5168 141.6962 15.34368261    12

Śledź STARLINK-32860 w czasie rzeczywistym z AllMySat

Download on the App Store